sat.trackr.live / text

‹ back to catalog

CONNECTA IOT-8

NORAD 62695 · 2025-009CQ

PAYLOAD ACTIVE UNKNOWN

§ Identity

Operator
Country
TURK
Launch date
2025-01-14
Launch site
AFWTR
Launch vehicle
Mass (kg)
RCS (m²)

External: N2YO · Heavens-Above · Gunter

§ Orbital elements

Epoch: 2026-09-22T17:38:41.483904Z

Period
96.42 min
Inclination
97.7009°
Eccentricity
0.0003717
Mean motion
14.93402096 rev/d
Perigee alt
584.7 km
Apogee alt
589.9 km
Semi-major
6,965.5 km
B*
9.7049e-5
RAAN
341.6174°
Arg perigee
55.6212°
Mean anomaly
304.5359°
Rev number
9,185

§ Raw data

CONNECTA IOT-81 62695U 25009CQ  26265.73520236  .00000963  00000+0  97049-4 0  99932 62695  97.7009 341.6174 0003717  55.6212 304.5359 14.93402096 91857

JSON: /api/v1/satellites/62695 · /tle

For live sub-satellite position, see the globe view (requires WebGL).

§ Visibility from observer

Set your observer location to see the next 7 days of passes ≥ 10°. The values pass through the URL so the page stays shareable.

No JS? Fill the form by hand. The geolocation button needs JavaScript.

§ Radio — SatNOGS DB

ModeDescriptionDownlinkUplink
GMSK Mode S - GMSK 4k8 AX.25 TLM 2.240 GHz
GMSK Mode U - GMSK 4k8 AX.25 TLM 401.540 MHz

2 transmitters · refreshed weekly from db.satnogs.org